Tracking 28790 objects as of 19-Apr-2024
HD Live streaming from Space Station
objects crossing your sky now

FENGYUN 1C DEB

Track FENGYUN 1C DEB now!
10-day predictions


NORAD ID: 33673
Int'l Code: 1999-025DFJ
Perigee: 843.0 km
Apogee: 1,002.9 km
Inclination: 99.4 °
Period: 103.3 minutes
Semi major axis: 7293 km
RCS: 0.0036 m2 (small)
Launch date: May 10, 1999
Source: People's Republic of China (PRC)
Launch site: Taiyaun Space Center, China (TSC)

Note: This is SATELLITE DEBRIS
Your satellite tracking list
Your tracking list is empty




NASA's NSSDC Master Catalog

Two Line Element Set (TLE):
1 33673U 99025DFJ 24109.06335316  .00001071  00000-0  80830-3 0  9991
2 33673  99.3994 140.5574 0109577  59.4323 328.6554 13.93659348814870
Source of the keplerian elements: AFSPC